Location: Newark
(31.5350°N, 35.0986°E)
Time: 11:55:16
(UTC+00:00)

Transit 4A - Pass Details

Date: 22 October 2019
Orbit: 868 x 976 km, 66.8° (Epoch: 16 November)

Event Time Altitude Azimuth Distance (km) Brightness Sun altitude
Rises 02:32:34 0° 236° (SW) 3,659 - -16.6°
Reaches altitude 10° 02:35:34 10° 248° (WSW) 2,710 - -16.0°
Exits shadow 02:38:36 22° 273° (W) 1,969 9.0 -15.3°
Maximum altitude 02:40:49 27° 304° (NW) 1,763 8.9 -14.9°
Drops below altitude 10° 02:46:01 10° 1° (N) 2,677 10.3 -13.8°
Sets 02:48:59 0° 13° (NNE) 3,608 11.1 -13.1°
